This is the latest recevied weather packets stored in our database for station/object CT8ACA-6. If no packets are shown the sender has not sent any weather packets the latest 10 day(s).
| Time | Temp. | Humidity | Pressure | Rain* | Wind** | Luminosity | Snow |
|---|---|---|---|---|---|---|---|
| 1787602590 | 24.44° C | 77% | 1020.5 hPa | 0 mm | - | - | - |
| 1787601990 | 24.44° C | 77% | 1021.2 hPa | 0 mm | - | - | - |
| 1787601389 | 24.44° C | 76% | 1021.2 hPa | 0 mm | - | - | - |
| 1787600789 | 24.44° C | 76% | 1021.5 hPa | 0 mm | - | - | - |
| 1787600190 | 24.44° C | 76% | 1021.5 hPa | 0 mm | - | - | - |
| 1787599589 | 24.44° C | 75% | 1022 hPa | 0 mm | - | - | - |
| 1787598989 | 25° C | 75% | 1022 hPa | 0 mm | - | - | - |
| 1787598389 | 25° C | 74% | 1022.5 hPa | 0 mm | - | - | - |
| 1787597789 | 25° C | 74% | 1022.5 hPa | 0 mm | - | - | - |
| 1787597189 | 25° C | 74% | 1023.2 hPa | 0 mm | - | - | - |
| 1787596589 | 25.56° C | 74% | 1023.2 hPa | 0 mm | - | - | - |
| 1787595988 | 25° C | 73% | 1023.5 hPa | 0 mm | - | - | - |
| 1787577485 | 27.78° C | 66% | 1023 hPa | 0 mm | - | - | - |
| 1787576886 | 28.33° C | 70% | 1022.9 hPa | 0 mm | - | - | - |
| 1787576286 | 26.67° C | 68% | 1022.9 hPa | 0 mm | - | - | - |
| 1787575685 | 26.11° C | 68% | 1022.9 hPa | 0 mm | - | - | - |
| 1787575085 | 25.56° C | 66% | 1022.9 hPa | 0 mm | - | - | - |
| 1787573885 | 26.67° C | 68% | 1022 hPa | 0 mm | - | - | - |
| 1787572084 | 25° C | 69% | 1021.5 hPa | 0 mm | - | - | - |
| 1787569684 | 24.44° C | 70% | 1020.4 hPa | 0 mm | - | - | - |
| 1787568484 | 24.44° C | 71% | 1019.2 hPa | 0 mm | - | - | - |
| 1787567284 | 23.89° C | 71% | 1017.9 hPa | 0 mm | - | - | - |
| 1787566683 | 23.33° C | 71% | 1017.9 hPa | 0 mm | - | - | - |
| 1787566084 | 23.33° C | 71% | 1016.7 hPa | 0 mm | - | - | - |
| 1787565484 | 23.33° C | 71% | 1016.7 hPa | 0 mm | - | - | - |
* Rain latest hour (hover to see other rain measurements)
** Current wind speed in m/s (hover to see current wind gust speed)